Orbital Elements at Epoch 2459200.5 (2020-Dec-17.0) TDB
Reference: JPL 32 (heliocentric ecliptic J2000)
Element | Value | Uncertainty (1-sigma) | Units |
e | .08416824558378862 | 3.7812e-08 | |
a | 2.226485842612113 | 6.3874e-09 | au |
q | 2.039086435422308 | 8.5168e-08 | au |
i | 5.393847025780604 | 4.7483e-06 | deg |
node | 354.0173399743498 | 4.0483e-05 | deg |
peri | 74.4961449189873 | 5.0024e-05 | deg |
M | 89.91475989148526 | 2.7899e-05 | deg |
tp | 2458897.420318685675 (2020-Feb-17.92031869) | 9.4081e-05 | TDB |
period | 1213.468015761106 3.32 | 5.2218e-06 1.43e-08 | d yr |
n | .2966703656990931 | 1.2766e-09 | deg/d |
Q | 2.413885249801918 | 6.925e-09 | au |
|
| | Orbit Determination Parameters
Additional Information
|